{"data":{"norad_id":53917,"epoch":"2026-09-20T23:08:55.236480Z","epoch_age_seconds":46514,"freshness":"FRESH","line1":"1 53917U 22119AH  26263.96452820  .00000281  00000+0  23650-4 0  9995","line2":"2 53917  53.1604 121.4310 0001301  98.3097 261.8050 15.26519921221816","mean_motion":15.26519921,"eccentricity":0.0001301,"inclination_deg":53.1604,"raan_deg":121.431,"arg_perigee_deg":98.3097,"mean_anomaly_deg":261.805,"bstar":2.365e-5,"rev_number":22181,"period_min":94.332211469384,"perigee_km":485.33213721174,"apogee_km":487.11824425377,"semimajor_km":6864.3621907328,"source":"CELESTRAK","updated_at":"2026-09-21T09:00:33.034431Z"}}